Regional Weather Roundup
Issued by NWS

Home | Current Version | Previous Version | Graphics & Text | Print | Product List | Glossary On
Versions: 1 2 3 4 5 6 7 8 9 10 11 12 13 14 15 16 17 18 19 20 21 22 23 24 25 26 27 28 29 30 31 32 33 34 35 36 37 38 39 40 41 42 43 44 45 46 47 48 49 50
000
ASUS45 KBOU 241107
RWRCO

WEATHER ROUNDUP FOR COLORADO
NATIONAL WEATHER SERVICE DENVER/BOULDER CO
500 AM MDT FRI MAR 24 2017

NOTE: "FAIR" INDICATES FEW OR NO CLOUDS BELOW 12000 FEET WITH NO
SIGNIFICANT WEATHER AND/OR OBSTRUCTIONS TO VISIBILITY.

COZ001>005-013-030-031-241200-
...NORTHWEST COLORADO...

CITY           SKY/WX    TMP DP  RH WIND       PRES   REMARKS
CRAIG          CLOUDY    37  29  72 N16       30.03R
HAYDEN         CLOUDY    34  27  75 SW3       30.03R
MEEKER         MOCLDY    38  28  67 N14       30.04R
MOUNT WERNER   NOT AVBL
STEAMBOAT SPGS CLOUDY    35  28  75 E5        30.00R WCI  31
WALDEN         NOT AVBL
$$

COZ006>008-011-241200-
...WEST CENTRAL VALLEYS...

CITY           SKY/WX    TMP DP  RH WIND       PRES   REMARKS
GRAND JUNCTION MOCLDY    40  34  79 NW14      30.00R
MONTROSE       CLOUDY    42  33  70 NW20G28   29.98R
EAGLE          CLOUDY    38  36  92 W5        29.98R
RIFLE          LGT RAIN  42  33  70 NW14G22   30.02R
DELTA          MIX PCPN  47  33  57 NW20G28   29.95R
NUCLA          CLOUDY    41  32  70 NW14      30.02R
$$

COZ017>023-064>068-241200-
...SOUTHWEST COLORADO...

CITY           SKY/WX    TMP DP  RH WIND       PRES   REMARKS
DURANGO        FAIR      36  29  75 SW14      29.79R
CORTEZ         FAIR      39  31  72 NW17G29   29.94S
PAGOSA SPRINGS CLOUDY    33  33 100 E3        29.82R
TELLURIDE      NOT AVBL
WOLF CREEK PAS LGT SNOW  21  21 100 NW10G26   29.89R WCI  10
$$

COZ009-010-012-014-032>034-037-058>063-241200-
...CENTRAL COLORADO...

CITY           SKY/WX    TMP DP  RH WIND       PRES   REMARKS
ASPEN          LGT SNOW  35  32  88 N10G17    29.93R FOG     WCI  27
BUENA VISTA    CLOUDY    37  29  73 NE16G22   29.83R
COPPER MTN     CLOUDY    27  21  80 MISG      29.94R
BERTHOUD PASS  CLOUDY    18   5  57 MISG      29.96R
COTTONWOOD PAS CLOUDY    36  27  69 CALM      29.86R
GUNNISON       FAIR      37  29  72 W10G21    29.86R
KREMMLING      MOCLDY    39  30  70 N13G23    29.99R
LEADVILLE      FAIR      28  21  75 N17G29    29.89R WCI  16
MONARCH PASS   LGT SNOW  23  21  93 N10G18    29.98R WCI  12
SALIDA         CLOUDY    37  34  87 N6G16     29.89R
SUNLIGHT       HVY SNOW N/A N/A N/A NW10G18   30.04R VSB<1/4
WILKERSON PASS CLOUDY    23  19  86 MISG      29.86S
$$

COZ069>075-241200-
...SAN LUIS VALLEY/SANGRE DE CRISTO MOUNTAINS...

CITY           SKY/WX    TMP DP  RH WIND       PRES   REMARKS
ALAMOSA        LGT RAIN  35  33  92 NW22G31   29.71R WCI  23
LA VETA PASS   NOT AVBL
SAGUACHE       CLOUDY    36  32  87 N6        29.78R
$$

COZ035-036-038>040-241200-
...NORTHERN COLORADO FRONT RANGE...

CITY           SKY/WX    TMP DP  RH WIND       PRES   REMARKS
DENVER INTL AP LGT SNOW  34  32  92 NW31G41   29.88R VSB 3/4 WCI  20
DMNS CITY PARK   N/A     37  35  94 NW17G28   29.92R
AURORA         LGT SNOW  33  33 100 N30G40    29.88R FOG     WCI  19
FRONT RANGE AP LGT SNOW  34  34 100 NW31G44   29.87R VSB 3/4 WCI  20
ERIE MUNI ARPT DRIZZLE   40  36  87 N17G28    29.94R
BOULDER MUN AP CLOUDY    39  36  87 N16G23    29.95R
CENTENNIAL     LGT SNOW  33  32  96 N26G39    29.88R VSB 3/4 WCI  20
BROOMFIELD     DRIZZLE   37  36  93 N25G33    29.93R
FORT COLLINS   LGT RAIN  40  33  76 N23G32    29.96R
LONGMONT       MIX PCPN  42  36  80 N16G22    29.98R
$$

COZ041-046-047-076>085-087-088-241200-
...PIKES PEAK/PALMER DIVIDE AND SOUTHERN FOOTHILLS...

CITY           SKY/WX    TMP DP  RH WIND       PRES   REMARKS
COLO. SPRINGS  SNOW      33  33 100 N38G53    29.76R VSB 1/2 WCI  18
A. F. ACADEMY  LGT SNOW  32  32  99 N30G47    29.79R VSB 1   WCI  18
SCHRIEVER AFB  LGT SNOW  32  31  96 NW39G58   29.70  VSB 5/8 WCI  16
ELLICOTT       HVY SNOW   1   1 100 N45G56    29.67R WCI -29
FALCON         CLOUDY    31  30  96 N32G51    29.76R WCI  16
FORT CARSON    LGT SNOW  34  32  91 N40G55    29.72R FOG     WCI  18
LIMON          FOG       32  32 100 N35G51    29.71S VSB 1   WCI  17
MONUMENT HILL  CLOUDY    30  28  93 N29G41    29.85R WCI  15
TRINIDAD       FLURRIES  38  33  82 N43G63    29.55R
$$

COZ042>045-048>051-090-091-241200-
...NORTHEAST COLORADO...

CITY           SKY/WX    TMP DP  RH WIND       PRES   REMARKS
GREELEY ARPT   LGT RAIN  40  35  83 N25G31    29.94R
AKRON          RAIN      39  38  96 N32G41    29.79R FOG
BURLINGTON     RAIN      48  47  96 NE33G49   29.60R VSB 1/2
WRAY           NOT AVBL
STERLING       LGT RAIN  41  39  93 N25G32    29.83R
HOLYOKE        RAIN      45  43  93 N26G33    29.81R
FORT MORGAN    LGT RAIN  38  36  91 N30G38    29.86R
$$

COZ086-089-092>099-241200-
...SOUTHEAST COLORADO...

CITY           SKY/WX    TMP DP  RH WIND       PRES   REMARKS
PUEBLO         LGT RAIN  39  34  82 MISG      29.63R
LA JUNTA       CLOUDY    47  30  51 N16       29.53R
LAMAR          FAIR      43  33  68 E17G25    29.47R
SPRINGFIELD      N/A     41  28  60 E14       29.35R
$$



USA.gov is the U.S. government's official web portal to all federal, state and local government web resources and services.